| time (UTC) | temp C | wind direction | speed KPH | gust KPH | rain 1hr cm | rain 24hr cm | rain mn cm | humidity % | barometer mb |
| 20260504214905 | 16 | 289 | 8.0 | 27.4 | 0.00 | 0.00 | 0.00 | 67 | 1011.9 |
| 20260504213404 | 16 | 280 | 4.8 | 22.5 | 0.00 | 0.00 | 0.00 | 69 | 1011.9 |
| 20260504212904 | 16 | 268 | 6.4 | 22.5 | 0.00 | 0.00 | 0.00 | 68 | 1011.9 |
| 20260504212404 | 16 | 281 | 8.0 | 20.9 | 0.00 | 0.00 | 0.00 | 69 | 1011.9 |
| 20260504211904 | 16 | 265 | 9.7 | 20.9 | 0.00 | 0.00 | 0.00 | 68 | 1011.9 |
| 20260504211404 | 16 | 239 | 4.8 | 19.3 | 0.00 | 0.00 | 0.00 | 67 | 1011.9 |
| 20260504210904 | 16 | 260 | 4.8 | 24.1 | 0.00 | 0.00 | 0.00 | 67 | 1011.9 |
| 20260504210404 | 17 | 265 | 8.0 | 25.7 | 0.00 | 0.00 | 0.00 | 67 | 1011.9 |
| 20260504205906 | 17 | 278 | 11.3 | 25.7 | 0.00 | 0.00 | 0.00 | 66 | 1011.9 |
| 20260504205405 | 17 | 255 | 6.4 | 22.5 | 0.00 | 0.00 | 0.00 | 66 | 1011.9 |
| 20260504204906 | 17 | 278 | 9.7 | 22.5 | 0.00 | 0.00 | 0.00 | 66 | 1011.9 |
| 20260504204406 | 17 | 286 | 8.0 | 25.7 | 0.00 | 0.00 | 0.00 | 64 | 1011.9 |
| 20260504203905 | 17 | 277 | 8.0 | 25.7 | 0.00 | 0.00 | 0.00 | 63 | 1011.9 |
| 20260504203406 | 17 | 266 | 8.0 | 12.9 | 0.00 | 0.00 | 0.00 | 63 | 1011.9 |
| 20260504202405 | 17 | 280 | 6.4 | 24.1 | 0.00 | 0.00 | 0.00 | 63 | 1011.9 |
| 20260504201905 | 17 | 293 | 6.4 | 19.3 | 0.00 | 0.00 | 0.00 | 62 | 1011.9 |
| 20260504201405 | 17 | 267 | 6.4 | 16.1 | 0.00 | 0.00 | 0.00 | 61 | 1011.9 |
| 20260504200904 | 18 | 233 | 9.7 | 16.1 | 0.00 | 0.00 | 0.00 | 60 | 1011.9 |
| 20260504200405 | 18 | 259 | 6.4 | 24.1 | 0.00 | 0.00 | 0.00 | 61 | 1011.9 |
| 20260504195905 | 18 | 247 | 3.2 | 24.1 | 0.00 | 0.00 | 0.00 | 61 | 1011.9 |
| 20260504195405 | 18 | 288 | 8.0 | 24.1 | 0.00 | 0.00 | 0.00 | 58 | 1011.9 |
| 20260504194904 | 18 | 274 | 8.0 | 22.5 | 0.00 | 0.00 | 0.00 | 55 | 1011.9 |
| 20260504194404 | 19 | 291 | 8.0 | 20.9 | 0.00 | 0.00 | 0.00 | 55 | 1011.9 |
| 20260504193907 | 19 | 285 | 6.4 | 24.1 | 0.00 | 0.00 | 0.00 | 54 | 1011.9 |
| 20260504193404 | 19 | 277 | 3.2 | 24.1 | 0.00 | 0.00 | 0.00 | 55 | 1011.9 |
| 20260504192405 | 20 | 293 | 12.9 | 24.1 | 0.00 | 0.00 | 0.00 | 49 | 1011.9 |
| 20260504191904 | 22 | 279 | 11.3 | 22.5 | 0.00 | 0.00 | 0.00 | 48 | 1011.6 |
| 20260504191404 | 23 | 282 | 9.7 | 20.9 | 0.00 | 0.00 | 0.00 | 48 | 1011.6 |
| 20260504190906 | 24 | 293 | 8.0 | 20.9 | 0.00 | 0.00 | 0.00 | 47 | 1011.6 |
| 20260504190404 | 24 | 290 | 8.0 | 12.9 | 0.00 | 0.00 | 0.00 | 47 | 1011.6 |
| 20260504185904 | 24 | 303 | 4.8 | 9.7 | 0.00 | 0.00 | 0.00 | 47 | 1011.8 |
| 20260504184906 | 23 | 304 | 4.8 | 8.0 | 0.00 | 0.00 | 0.00 | 48 | 1011.8 |
| 20260504183906 | 23 | 297 | 1.6 | 3.2 | 0.00 | 0.00 | 0.00 | 45 | 1011.8 |
| 20260504183404 | 23 | 297 | 3.2 | 3.2 | 0.00 | 0.00 | 0.00 | 48 | 1011.8 |
| 20260504182905 | 23 | 297 | 1.6 | 3.2 | 0.00 | 0.00 | 0.00 | 46 | 1011.9 |
| 20260504182405 | 23 | 297 | 1.6 | 3.2 | 0.00 | 0.00 | 0.00 | 44 | 1011.9 |
| 20260504181904 | 23 | 297 | 1.6 | 3.2 | 0.00 | 0.00 | 0.00 | 46 | 1011.9 |
| 20260504180905 | 23 | 297 | 1.6 | 3.2 | 0.00 | 0.00 | 0.00 | 45 | 1012.0 |
| 20260504180404 | 23 | 297 | 1.6 | 4.8 | 0.00 | 0.00 | 0.00 | 46 | 1012.0 |
| 20260504175405 | 22 | 297 | 3.2 | 4.8 | 0.00 | 0.00 | 0.00 | 47 | 1011.9 |
| 20260504174904 | 22 | 297 | 3.2 | 4.8 | 0.00 | 0.00 | 0.00 | 45 | 1011.9 |
| 20260504174405 | 23 | 297 | 1.6 | 4.8 | 0.00 | 0.00 | 0.00 | 45 | 1011.9 |
| 20260504173904 | 23 | 297 | 1.6 | 4.8 | 0.00 | 0.00 | 0.00 | 44 | 1011.9 |
| 20260504173404 | 23 | 297 | 3.2 | 4.8 | 0.00 | 0.00 | 0.00 | 47 | 1011.9 |
| 20260504172905 | 23 | 299 | 1.6 | 4.8 | 0.00 | 0.00 | 0.00 | 47 | 1012.0 |
| 20260504172405 | 23 | 307 | 3.2 | 4.8 | 0.00 | 0.00 | 0.00 | 44 | 1012.0 |
| 20260504171405 | 22 | 307 | 1.6 | 4.8 | 0.00 | 0.00 | 0.00 | 46 | 1012.0 |
| 20260504170406 | 22 | 307 | 3.2 | 4.8 | 0.00 | 0.00 | 0.00 | 48 | 1012.0 |
| 20260504160408 | 21 | 340 | 3.2 | 9.7 | 0.00 | 0.00 | 0.00 | 50 | 1011.1 |
| 20260504150905 | 18 | 280 | 1.6 | 8.0 | 0.00 | 0.00 | 0.00 | 50 | 1011.0 |
| 20260504150406 | 17 | 280 | 1.6 | 8.0 | 0.00 | 0.00 | 0.00 | 57 | 1010.8 |
| 20260504140905 | 13 | 195 | 9.7 | 9.7 | 0.00 | 0.00 | 0.00 | 64 | 1010.5 |
| 20260504140404 | 13 | 198 | 9.7 | 9.7 | 0.00 | 0.00 | 0.00 | 63 | 1010.5 |
| 20260504130405 | 11 | 183 | 12.9 | 14.5 | 0.00 | 0.00 | 0.00 | 66 | 1010.1 |
| 20260504110404 | 11 | 168 | 8.0 | 9.7 | 0.00 | 0.00 | 0.00 | 67 | 1010.0 |
| 20260504100404 | 11 | 187 | 4.8 | 8.0 | 0.00 | 0.00 | 0.00 | 67 | 1010.0 |
| 20260504081405 | 12 | 312 | 0.0 | 1.6 | 0.00 | 0.00 | 0.00 | 62 | 1009.6 |
| 20260504080904 | 12 | 297 | 0.0 | 4.8 | 0.00 | 0.00 | 0.00 | 62 | 1009.6 |
| 20260504080405 | 13 | 297 | 1.6 | 8.0 | 0.00 | 0.00 | 0.00 | 63 | 1009.6 |
| 20260504070404 | 13 | 203 | 9.7 | 8.0 | 0.00 | 0.00 | 0.00 | 60 | 1010.0 |
| 20260504050406 | 16 | 208 | 4.8 | 9.7 | 0.00 | 0.00 | 0.00 | 52 | 1010.5 |
| 20260504045905 | 16 | 210 | 8.0 | 9.7 | 0.00 | 0.00 | 0.00 | 52 | 1010.5 |
| 20260504045404 | 16 | 254 | 3.2 | 8.0 | 0.00 | 0.00 | 0.00 | 49 | 1010.5 |
| 20260504045243 | 16 | 254 | 3.2 | 8.0 | 0.00 | 0.00 | 0.00 | 48 | 1010.5 |
| 20260504043904 | 17 | 185 | 6.4 | 9.7 | 0.00 | 0.00 | 0.00 | 45 | 1010.3 |
| 20260504043407 | 17 | 179 | 4.8 | 9.7 | 0.00 | 0.00 | 0.00 | 45 | 1010.3 |
| 20260504042904 | 17 | 179 | 9.7 | 9.7 | 0.00 | 0.00 | 0.00 | 45 | 1010.3 |
| 20260504042404 | 17 | 195 | 4.8 | 8.0 | 0.00 | 0.00 | 0.00 | 46 | 1010.3 |
| 20260504041906 | 17 | 195 | 8.0 | 8.0 | 0.00 | 0.00 | 0.00 | 46 | 1010.3 |
| 20260504041406 | 17 | 234 | 3.2 | 8.0 | 0.00 | 0.00 | 0.00 | 44 | 1010.0 |
| 20260504040906 | 17 | 234 | 0.0 | 4.8 | 0.00 | 0.00 | 0.00 | 43 | 1010.0 |
| 20260504040407 | 17 | 234 | 3.2 | 4.8 | 0.00 | 0.00 | 0.00 | 43 | 1010.0 |
| 20260504035906 | 18 | 234 | 4.8 | 8.0 | 0.00 | 0.00 | 0.00 | 42 | 1010.0 |
| 20260504035404 | 18 | 234 | 4.8 | 8.0 | 0.00 | 0.00 | 0.00 | 41 | 1010.0 |
| 20260504034906 | 18 | 234 | 6.4 | 8.0 | 0.00 | 0.00 | 0.00 | 41 | 1010.0 |
| 20260504033905 | 19 | 234 | 6.4 | 8.0 | 0.00 | 0.00 | 0.00 | 40 | 1010.0 |
| 20260504033406 | 19 | 234 | 4.8 | 4.8 | 0.00 | 0.00 | 0.00 | 39 | 1010.0 |
| 20260504032904 | 20 | 234 | 3.2 | 4.8 | 0.00 | 0.00 | 0.00 | 38 | 1010.0 |
| 20260504032405 | 20 | 234 | 0.0 | 0.0 | 0.00 | 0.00 | 0.00 | 38 | 1010.0 |
| 20260504031906 | 21 | 234 | 0.0 | 0.0 | 0.00 | 0.00 | 0.00 | 37 | 1010.0 |
| 20260504031406 | 21 | 234 | 0.0 | 0.0 | 0.00 | 0.00 | 0.00 | 35 | 1010.0 |
| 20260504030904 | 22 | 234 | 0.0 | 0.0 | 0.00 | 0.00 | 0.00 | 35 | 1010.0 |
| 20260504030406 | 22 | 234 | 0.0 | 0.0 | 0.00 | 0.00 | 0.00 | 33 | 1010.1 |
| 20260504025905 | 23 | 234 | 0.0 | 0.0 | 0.00 | 0.00 | 0.00 | 32 | 1010.1 |
| 20260504025405 | 23 | 234 | 0.0 | 1.6 | 0.00 | 0.00 | 0.00 | 30 | 1010.1 |
| 20260504024405 | 23 | 234 | 1.6 | 9.7 | 0.00 | 0.00 | 0.00 | 29 | 1010.1 |
| 20260504023905 | 23 | 234 | 3.2 | 9.7 | 0.00 | 0.00 | 0.00 | 29 | 1010.3 |
| 20260504023404 | 23 | 234 | 4.8 | 9.7 | 0.00 | 0.00 | 0.00 | 27 | 1010.3 |
| 20260504022904 | 23 | 223 | 3.2 | 8.0 | 0.00 | 0.00 | 0.00 | 30 | 1010.3 |
| 20260504022405 | 23 | 222 | 3.2 | 9.7 | 0.00 | 0.00 | 0.00 | 29 | 1010.5 |
| 20260504020904 | 23 | 228 | 8.0 | 12.9 | 0.00 | 0.00 | 0.00 | 28 | 1010.6 |
| 20260504020405 | 24 | 240 | 1.6 | 12.9 | 0.00 | 0.00 | 0.00 | 28 | 1010.6 |
| 20260504015904 | 24 | 232 | 8.0 | 12.9 | 0.00 | 0.00 | 0.00 | 28 | 1010.6 |
| 20260504014904 | 24 | 266 | 3.2 | 8.0 | 0.00 | 0.00 | 0.00 | 30 | 1011.1 |
| 20260504014404 | 25 | 295 | 4.8 | 8.0 | 0.00 | 0.00 | 0.00 | 29 | 1011.1 |
| 20260504013906 | 25 | 293 | 3.2 | 9.7 | 0.00 | 0.00 | 0.00 | 30 | 1011.1 |
| 20260504013404 | 25 | 293 | 4.8 | 9.7 | 0.00 | 0.00 | 0.00 | 29 | 1011.1 |
| 20260504012404 | 25 | 306 | 3.2 | 4.8 | 0.00 | 0.00 | 0.00 | 31 | 1011.1 |
| 20260504011406 | 26 | 306 | 3.2 | 4.8 | 0.00 | 0.00 | 0.00 | 30 | 1011.1 |
| 20260504010905 | 26 | 306 | 0.0 | 3.2 | 0.00 | 0.00 | 0.00 | 32 | 1011.1 |
| 20260504010405 | 26 | 306 | 1.6 | 3.2 | 0.00 | 0.00 | 0.00 | 31 | 1011.1 |
| 20260504005904 | 26 | 306 | 1.6 | 3.2 | 0.00 | 0.00 | 0.00 | 31 | 1011.7 |
| 20260504005404 | 26 | 305 | 1.6 | 3.2 | 0.00 | 0.00 | 0.00 | 28 | 1011.7 |
| 20260504004404 | 26 | 306 | 1.6 | 4.8 | 0.00 | 0.00 | 0.00 | 31 | 1011.7 |
| 20260504003404 | 26 | 302 | 3.2 | 8.0 | 0.00 | 0.00 | 0.00 | 32 | 1011.7 |
| 20260504002904 | 26 | 300 | 3.2 | 8.0 | 0.00 | 0.00 | 0.00 | 32 | 1011.7 |
| 20260504001905 | 27 | 295 | 3.2 | 9.7 | 0.00 | 0.00 | 0.00 | 36 | 1011.7 |
| 20260504001404 | 27 | 279 | 4.8 | 9.7 | 0.00 | 0.00 | 0.00 | 28 | 1011.7 |
| 20260503235906 | 27 | 293 | 3.2 | 8.0 | 0.00 | 0.00 | 0.00 | 31 | 1011.7 |
| 20260503235404 | 27 | 301 | 3.2 | 8.0 | 0.00 | 0.00 | 0.00 | 33 | 1011.7 |
| 20260503234906 | 27 | 305 | 4.8 | 8.0 | 0.00 | 0.00 | 0.00 | 32 | 1011.8 |
| 20260503234404 | 27 | 301 | 3.2 | 9.7 | 0.00 | 0.00 | 0.00 | 31 | 1011.8 |
| 20260503233904 | 28 | 290 | 4.8 | 9.7 | 0.00 | 0.00 | 0.00 | 31 | 1011.9 |
| 20260503233404 | 28 | 299 | 4.8 | 9.7 | 0.00 | 0.00 | 0.00 | 34 | 1012.6 |
| 20260503232906 | 28 | 291 | 4.8 | 9.7 | 0.00 | 0.00 | 0.00 | 32 | 1012.6 |
| 20260503232405 | 28 | 301 | 6.4 | 9.7 | 0.00 | 0.00 | 0.00 | 32 | 1012.6 |
| 20260503231906 | 28 | 294 | 4.8 | 9.7 | 0.00 | 0.00 | 0.00 | 31 | 1012.6 |
| 20260503231405 | 27 | 299 | 4.8 | 9.7 | 0.00 | 0.00 | 0.00 | 32 | 1012.6 |
| 20260503230906 | 27 | 300 | 4.8 | 11.3 | 0.00 | 0.00 | 0.00 | 32 | 1012.6 |
| 20260503230405 | 27 | 302 | 4.8 | 11.3 | 0.00 | 0.00 | 0.00 | 33 | 1012.6 |
| 20260503225404 | 26 | 299 | 4.8 | 9.7 | 0.00 | 0.00 | 0.00 | 36 | 1012.6 |
| 20260503224904 | 26 | 301 | 4.8 | 9.7 | 0.00 | 0.00 | 0.00 | 39 | 1012.6 |
| 20260503224404 | 26 | 319 | 3.2 | 4.8 | 0.00 | 0.00 | 0.00 | 42 | 1012.6 |
| 20260503223904 | 26 | 320 | 3.2 | 4.8 | 0.00 | 0.00 | 0.00 | 39 | 1013.4 |
| 20260503222405 | 25 | 320 | 3.2 | 8.0 | 0.00 | 0.00 | 0.00 | 39 | 1013.4 |
| 20260503221904 | 25 | 320 | 3.2 | 8.0 | 0.00 | 0.00 | 0.00 | 40 | 1013.4 |
| 20260503221404 | 25 | 320 | 4.8 | 8.0 | 0.00 | 0.00 | 0.00 | 42 | 1013.4 |
| 20260503220904 | 25 | 321 | 3.2 | 4.8 | 0.00 | 0.00 | 0.00 | 40 | 1013.4 |
| 20260503220405 | 25 | 321 | 3.2 | 4.8 | 0.00 | 0.00 | 0.00 | 38 | 1013.4 |
| 20260503215404 | 24 | 317 | 3.2 | 8.0 | 0.00 | 0.00 | 0.00 | 39 | 1013.4 |